Location: Ostrava
(49.8330°N, 18.2830°E)
Time: 07:50:33
(UTC+01:00)

Explorer 7 - Visible Passes

Search period start: 13 February 2016 00:00
Search period end: 23 February 2016 00:00
Orbit: 487 x 689 km, 50.3° (Epoch: 13 February)

Date Brightness Start Highest point End Pass type
(mag) Time Alt. Az. Time Alt. Az. Time Alt. Az.
13 Feb 7.1 18:11:29 10° W 18:16:03 84° N 18:19:22 20° E visible
13 Feb 7.8 19:52:10 10° WNW 19:55:49 53° W 19:55:49 53° W visible
14 Feb 7.1 18:18:17 10° W 18:22:51 84° N 18:25:57 22° E visible
14 Feb 8.1 19:58:57 10° WNW 20:02:24 45° WSW 20:02:24 45° WSW visible
15 Feb 7.1 18:25:03 10° W 18:29:38 89° NE 18:32:34 23° E visible
15 Feb 8.4 20:05:45 10° W 20:09:01 37° WSW 20:09:01 37° WSW visible
16 Feb 7.1 18:31:48 10° W 18:36:23 80° SSW 18:39:14 24° ESE visible
16 Feb 8.8 20:12:36 10° W 20:15:40 29° WSW 20:15:40 29° WSW visible
17 Feb 7.4 18:38:33 10° WNW 18:43:06 66° SSW 18:45:57 24° SE visible
17 Feb 9.2 20:19:35 10° W 20:22:24 22° WSW 20:22:24 22° WSW visible
18 Feb 7.8 18:45:19 10° W 18:49:45 51° SSW 18:52:44 21° SE visible
18 Feb 9.6 20:26:52 10° W 20:29:11 16° SW 20:29:11 16° SW visible
19 Feb 8.3 18:52:07 10° W 18:56:22 38° SSW 18:59:38 17° SSE visible
19 Feb 9.9 20:35:21 10° WSW 20:36:06 10° SW 20:36:06 10° SW visible
20 Feb 8.9 18:59:01 10° W 19:02:54 27° SW 19:06:40 11° SSE visible
21 Feb 9.4 19:06:07 10° W 19:09:22 19° SW 19:12:43 10° S visible
22 Feb 9.9 19:13:47 10° WSW 19:15:46 13° SW 19:17:47 10° SSW visible
